Zurück zum Katalog

STARLINK-37407

AktivKommunikationVLEO
NORAD 69534·PAYLOAD·🇺🇸 United States

Gestartet Jun 12, 2026 von Cape Canaveral Space Force Station

Loading…

Nächste Überflüge (nächste 24 Stunden)

TLE

AktuellSource: CelesTrak SupGP

Epoche: Sep 15, 2026, 03:04 UTC

1 69534C 26133AC  26258.12826389 -.00036896  00000+0 -10900-2 0  2587
2 69534  53.1574 255.0904 0001346  89.1684 331.3208 15.34412604    10

Verfolge STARLINK-37407 in Echtzeit mit AllMySat

Download on the App Store